United States

Glendale, NY Weather Archive

Below you will find the last 24 hours of weather readings for Glendale NY

Glendale NY Today's Weather Data

Observed at: Glendale, NY

Hour Observerd Temp Pressure Visibility Humidity Dew Point Wind
17:00 Partly Cloudy 85°F (29.4°C) 101.59 kPa 10 miles 42% 59°F (15°C) 18 mph S 173.75°
16:00 Partly Cloudy 85°F (29.4°C) 101.59 kPa 10 miles 42% 59°F (15°C) 18 mph S 173.75°
15:00 Partly Cloudy 88°F (31.1°C) 101.59 kPa 10 miles 39% 60.1°F (15.6°C) 15 mph S 173.75°23 mph
14:00 Partly Cloudy 90°F (32.2°C) 101.59 kPa 10 miles 32% 55.9°F (13.3°C) 12 mph SW 218.75°18 mph
13:00 Partly Cloudy 85°F (29.4°C) 101.59 kPa 10 miles 45% 61°F (16.1°C) 5 mph SW 218.75°
12:00 Partly Cloudy 85°F (29.4°C) 101.59 kPa 10 miles 45% 61°F (16.1°C) 5 mph SW 218.75°
11:00 Partly Cloudy 85°F (29.4°C) 101.59 kPa 10 miles 45% 61°F (16.1°C) 5 mph SW 218.75°
10:00 Partly Cloudy 84°F (28.9°C) 101.59 kPa 10 miles 49% 63°F (17.2°C) 5 mph SW 218.75°
09:00 Partly Cloudy 73°F (22.8°C) 101.59 kPa 10 miles 76% 64.9°F (18.3°C) 5 mph SW 218.75°
08:00 Partly Cloudy 73°F (22.8°C) 101.59 kPa 10 miles 76% 64.9°F (18.3°C) 5 mph SW 218.75°
07:00 Partly Cloudy 73°F (22.8°C) 101.59 kPa 10 miles 76% 64.9°F (18.3°C) 5 mph SW 218.75°
06:00 Fair 76°F (24.4°C) 101.59 kPa 10 miles 64% 63°F (17.2°C) 6 mph S 173.75°
05:00 Fair 76°F (24.4°C) 101.59 kPa 10 miles 64% 63°F (17.2°C) 6 mph S 173.75°
04:00 Fair 73°F (22.8°C) 101.59 kPa 10 miles 71% 63°F (17.2°C) 5 mph S 173.75°
03:00 Fair 73°F (22.8°C) 101.59 kPa 10 miles 71% 63°F (17.2°C) 6 mph SW 218.75°
02:00 Fair 76°F (24.4°C) 101.59 kPa 10 miles 64% 63°F (17.2°C) 6 mph S 173.75°
01:00 Fair 76°F (24.4°C) 101.59 kPa 10 miles 64% 63°F (17.2°C) 6 mph S 173.75°
00:00 Fair 76°F (24.4°C) 101.59 kPa 10 miles 64% 63°F (17.2°C) 6 mph S 173.75°
23:00 A Few Clouds 78°F (25.6°C) 101.59 kPa 10 miles 58% 62.1°F (16.7°C) 6 mph S 173.75°
22:00 A Few Clouds 81°F (27.2°C) 101.59 kPa 10 miles 51% 61°F (16.1°C) 10 mph S 173.75°
21:00 A Few Clouds 81°F (27.2°C) 101.59 kPa 10 miles 51% 61°F (16.1°C) 10 mph S 173.75°
20:00 A Few Clouds 82°F (27.8°C) 101.59 kPa 10 miles 51% 62.1°F (16.7°C) 13 mph S 173.75°
19:00 A Few Clouds 84°F (28.9°C) 101.59 kPa 10 miles 48% 62.1°F (16.7°C) 12 mph S 173.75°
18:00 Partly Cloudy 89°F (31.7°C) 101.59 kPa 10 miles 36% 59°F (15°C) 10 mph S 173.75°


Home | Earthquakes | About Us | Contact Us | Privacy

Copyright Friendly Forecast 2012 - 2022